Vienna, OH

9:51 PM EST on February 25, 2017 (GMT -0500)
Youngstown-Warren Regional

Weather History for KYNG - November, 2011

Change the Weather History Date:

Tuesday, November 22, 2011

  Actual Average Record
Temperature  
Mean Temperature 45 °F 39 °F  
Max Temperature 57 °F 46 °F 71 °F (1930)
Min Temperature 32 °F 32 °F 11 °F (1964)
Degree Days  
Heating Degree Days 20 26  
Month to date heating degree days 407 486  
Since 1 July heating degree days 959 1107  
Cooling Degree Days 0 0  
Month to date cooling degree days 0 0  
Year to date cooling degree days 731 544  
Moisture  
Dew Point 41 °F    
Average Humidity 95    
Maximum Humidity 100    
Minimum Humidity 89    
Precipitation  
Precipitation 0.80 in 0.11 in 0.80 in (2011)
Month to date precipitation 2.58 2.32  
Year to date precipitation 48.01 35.06  
Snow  
Snow 0.00 in 0.20 in - ()
Month to date snowfall 1.7 1.9  
Since 1 July snowfall 1.7 2.7  
Since 1 September snowfall 1.7 2.7  
Snow Depth 0.00 in    
Sea Level Pressure  
Sea Level Pressure 29.99 in    
Wind  
Wind Speed 11 mph (East)    
Max Wind Speed 18 mph    
Max Gust Speed 23 mph    
Visibility 5 miles    
Events Fog , Rain    
T = Trace of Precipitation, MM = Missing Value Source: NWS Daily Summary

Daily Weather History Graph

Daily Weather History Graph

Search for Another Location

Airport or City:

Trip Planner

Search our weather history database for the weather conditions in past years. The results will help you decide how hot, cold, wet, or windy it might be!

Date:

Astronomy

Nov. 22, 2011 Rise Set
Actual Time 7:18 AM EST 4:58 PM EST
Civil Twilight 6:48 AM EST 5:28 PM EST
Nautical Twilight 6:14 AM EST 6:02 PM EST
Astronomical Twilight 5:41 AM EST 6:35 PM EST
Moon 4:06 AM EST (11/22) 2:57 PM EST (11/22)
Length of Visible Light 10h 40m
Length of Day
9h 39m
Waning Crescent, 9% of the Moon is Illuminated
Nov 22
Waning Crescent
Nov 25
New
Dec 2
First Quarter
Dec 10
Full
Dec 17
Last Quarter

Hourly Weather History & Observations

Time (EST) Temp. Windchill Dew Point Humidity Pressure Visibility Wind Dir Wind Speed Gust Speed Precip Events Conditions
12:51 AM 33.1 °F 26.9 °F 30.9 °F 92% 30.25 in 9.0 mi NE 6.9 mph - N/A   Scattered Clouds
1:51 AM 33.1 °F 26.1 °F 30.0 °F 89% 30.26 in 8.0 mi NE 8.1 mph - N/A   Mostly Cloudy
2:51 AM 33.1 °F 26.9 °F 30.9 °F 92% 30.25 in 8.0 mi ENE 6.9 mph - N/A   Scattered Clouds
3:51 AM 34.0 °F 29.8 °F 32.0 °F 92% 30.25 in 9.0 mi ENE 4.6 mph - N/A   Overcast
4:51 AM 33.1 °F 26.9 °F 30.9 °F 92% 30.24 in 8.0 mi ENE 6.9 mph - N/A   Overcast
5:51 AM 34.0 °F 27.2 °F 32.0 °F 92% 30.23 in 8.0 mi East 8.1 mph - N/A   Overcast
5:59 AM 33.8 °F 26.4 °F 32.0 °F 93% 30.20 in 5.0 mi East 9.2 mph - N/A   Overcast
6:20 AM 33.8 °F 26.4 °F 33.8 °F 100% 30.20 in 1.2 mi ENE 9.2 mph - N/A   Overcast
6:42 AM 35.6 °F 28.0 °F 33.8 °F 93% 30.19 in 0.5 mi ENE 10.4 mph - N/A Fog Fog
6:51 AM 35.1 °F 28.6 °F 34.0 °F 96% 30.23 in 0.5 mi East 8.1 mph - N/A Fog Fog
7:00 AM 35.6 °F 28.6 °F 33.8 °F 93% 30.20 in 0.2 mi East 9.2 mph - N/A Fog Fog
7:51 AM 37.0 °F 31.0 °F 36.0 °F 96% 30.22 in 0.2 mi ENE 8.1 mph - N/A Fog Fog
8:35 AM 37.4 °F 32.1 °F 37.4 °F 100% 30.18 in 0.5 mi ENE 6.9 mph - N/A Fog Fog
8:51 AM 37.9 °F 32.7 °F 37.9 °F 100% 30.21 in 0.5 mi East 6.9 mph - N/A Fog Fog
9:12 AM 39.2 °F 33.6 °F 37.4 °F 93% 30.17 in 1.0 mi ENE 8.1 mph - N/A   Overcast
9:42 AM 39.2 °F 32.5 °F 37.4 °F 93% 30.15 in 2.0 mi ENE 10.4 mph - N/A   Overcast
9:51 AM 39.9 °F 33.9 °F 39.0 °F 97% 30.17 in 2.5 mi East 9.2 mph - N/A   Overcast
10:05 AM 41.0 °F 33.9 °F 39.2 °F 93% 30.13 in 4.0 mi East 12.7 mph - 0.00 in Rain Light Rain
10:51 AM 42.1 °F 36.1 °F 39.9 °F 92% 30.12 in 6.0 mi East 10.4 mph - 0.00 in   Overcast
11:25 AM 44.6 °F 38.4 °F 42.8 °F 93% 30.06 in 5.0 mi East 12.7 mph - 0.00 in Rain Light Rain
11:51 AM 45.0 °F 38.5 °F 42.1 °F 90% 30.08 in 7.0 mi ESE 13.8 mph 19.6 mph 0.00 in   Overcast
12:51 PM 45.0 °F 38.5 °F 42.1 °F 90% 30.05 in 5.0 mi East 13.8 mph - 0.01 in Rain Light Rain
1:37 PM 44.6 °F 38.1 °F 42.8 °F 93% 29.99 in 2.5 mi East 13.8 mph - 0.05 in Rain Rain
1:51 PM 45.0 °F 38.9 °F 43.0 °F 93% 30.00 in 2.0 mi East 12.7 mph - 0.09 in Rain Rain
1:55 PM 44.6 °F 38.4 °F 42.8 °F 93% 29.97 in 1.5 mi East 12.7 mph - 0.03 in Rain Heavy Rain
2:19 PM 44.6 °F 38.4 °F 42.8 °F 93% 29.95 in 2.0 mi East 12.7 mph - 0.07 in Rain Rain
2:51 PM 45.0 °F 38.2 °F 43.0 °F 93% 29.93 in 2.0 mi East 15.0 mph - 0.12 in Rain Rain
3:51 PM 45.0 °F 38.5 °F 43.0 °F 93% 29.90 in 2.5 mi East 13.8 mph - 0.11 in Rain Rain
4:32 PM 44.6 °F 38.1 °F 44.6 °F 100% 29.84 in 5.0 mi East 13.8 mph 23.0 mph 0.08 in Rain Light Rain
4:51 PM 46.0 °F 39.9 °F 44.1 °F 93% 29.86 in 6.0 mi ESE 13.8 mph - 0.10 in Rain Light Rain
5:51 PM 46.0 °F 39.6 °F 44.1 °F 93% 29.81 in 3.0 mi East 15.0 mph 21.9 mph 0.20 in Rain Heavy Rain
6:42 PM 46.4 °F 40.4 °F 44.6 °F 93% 29.76 in 10.0 mi ESE 13.8 mph - 0.10 in Rain Light Rain
6:51 PM 46.0 °F 41.0 °F 45.0 °F 96% 29.79 in 10.0 mi ESE 10.4 mph - 0.10 in Rain Light Rain
7:51 PM 48.0 °F - 46.9 °F 96% 29.74 in 7.0 mi SE 11.5 mph - 0.03 in Rain Light Rain
8:37 PM 51.8 °F - 50.0 °F 94% 29.69 in 10.0 mi SSE 12.7 mph - 0.01 in Rain Light Rain
8:51 PM 52.0 °F - 51.1 °F 97% 29.70 in 10.0 mi SSE 10.4 mph - 0.01 in Rain Light Rain
9:51 PM 54.0 °F - 53.1 °F 97% 29.67 in 10.0 mi SSE 13.8 mph 19.6 mph 0.01 in Rain Light Rain
10:38 PM 55.4 °F - 53.6 °F 94% 29.63 in 10.0 mi SSE 11.5 mph - 0.01 in Rain Light Rain
10:51 PM 55.9 °F - 54.0 °F 93% 29.64 in 10.0 mi SSE 11.5 mph - 0.01 in   Overcast
11:14 PM 55.4 °F - 53.6 °F 94% 29.61 in 8.0 mi South 9.2 mph - 0.01 in Rain Light Rain
11:26 PM 55.4 °F - 53.6 °F 94% 29.61 in 10.0 mi SSE 11.5 mph - 0.01 in   Overcast
11:51 PM 57.0 °F - 55.0 °F 93% 29.61 in 10.0 mi SSE 12.7 mph - 0.01 in   Overcast